[[{"header":{"parameterUnit":"m.s-1","parameterCategory":1,"la1":30.2991,"la2":30.254,"lo1":-89.0895,"lo2":-89.0444,"dx":0.0017,"dy":0.0017,"nx":28,"ny":28,"refTime":"2022-12-16T09:00:00:Z","depth":0,"parameterNumber":2,"parameterNumberName":"U-component_of_WINDS"},"data":[0,0,0,0,0,0,0,0,0,0,0,0,0,0,0,0,0,0,0,0,0,0,0,0,0,0,0,0,0,0,0,0,0,0,0,0,0,0,0,0,0,0,0,0,0,0,0,0,0,0,0,0,0,0,0,0,0,0,-1.1476,-1.1477,0,-1.1577,-1.1578,-1.1579,-1.1581,-1.158,-1.1579,-1.1577,-1.1683,-1.1687,-1.1691,0,0,0,0,0,0,0,0,0,0,0,0,0,-1.1288,-1.1292,-1.1476,-1.1478,-1.1479,-1.1577,-1.1578,-1.1579,-1.1581,-1.158,-1.1578,-1.1577,-1.1682,-1.1687,-1.1691,0,0,0,0,0,0,0,0,0,0,0,0,0,-1.1378,-1.1293,-1.1476,-1.1491,-1.1494,-1.1576,-1.1578,-1.158,-1.1582,-1.158,-1.1578,-1.1576,-1.168,-1.1686,-1.1692,-1.1767,0,0,-1.171,-1.1713,0,0,0,0,0,0,0,0,-1.1373,-1.1385,-1.1488,-1.1491,-1.1493,-1.1564,-1.1551,-1.1643,-1.1582,-1.1548,-1.1577,-1.1575,-1.1645,-1.1654,-1.1677,-1.1772,-1.1776,-1.1711,-1.1715,-1.1717,-1.1719,0,0,0,0,0,0,0,-1.1366,-1.138,-1.1516,-1.1489,-1.1493,-1.1494,-1.1505,-1.1568,-1.1606,-1.1551,-1.1552,-1.1563,-1.1647,-1.1671,-1.168,-1.1778,-1.1711,-1.1716,-1.172,-1.1722,-1.1939,-1.1941,0,0,0,0,0,0,-1.1357,-1.1375,-1.1513,-1.1519,-1.1427,-1.1499,-1.1511,-1.1544,-1.1606,-1.1613,-1.1565,-1.1563,-1.1662,-1.1673,-1.1683,-1.1776,-1.1717,-1.1723,-1.1726,-1.1937,-1.194,-1.1942,0,0,0,0,0,0,-1.1353,-1.1369,-1.1509,-1.1447,-1.1465,-1.1504,-1.1541,-1.1547,-1.1571,-1.1616,-1.1623,-1.1583,-1.1661,-1.1675,-1.1746,-1.1779,-1.1725,-1.1731,-1.1935,-1.1938,-1.1941,-1.196,0,0,0,0,0,0,-1.1347,-1.1368,-1.1396,-1.1448,-1.1468,-1.1569,-1.1543,-1.155,-1.1581,-1.158,-1.1635,-1.1642,-1.1661,-1.1737,-1.1752,-1.1787,-1.1735,-1.1932,-1.1936,-1.194,-1.1957,-1.1964,-1.1969,0,0,0,0,0,-1.1341,-1.1398,-1.1397,-1.1414,-1.1505,-1.1571,-1.1583,-1.1602,-1.1584,-1.1613,-1.1642,-1.1641,-1.1773,-1.1744,-1.1761,-1.1798,-1.193,-1.1935,-1.194,-1.1954,-1.1962,-1.1969,0,0,0,0,0,0,-1.135,-1.1405,-1.1405,-1.1481,-1.1521,-1.1571,-1.1609,-1.161,-1.1658,-1.1654,-1.1677,-1.1689,-1.176,-1.1786,-1.1753,-1.1874,-1.1849,-1.1858,-1.1854,-1.1863,-1.1869,-1.1862,-1.174,0,0,0,0,0,-1.1361,-1.1409,-1.1455,-1.1517,-1.1537,-1.1569,-1.1599,-1.161,-1.1654,-1.1671,-1.1705,-1.1747,-1.1799,-1.1832,-1.1882,-1.196,-1.1973,-1.1994,-1.2,-1.2005,-1.2013,-1.2056,-1.2067,-1.1958,-1.1958,-1.1958,0,0,-1.1384,-1.142,-1.1449,-1.152,-1.1553,-1.1603,-1.1584,-1.1638,-1.1676,-1.168,-1.1748,-1.1775,-1.1824,-1.1899,-1.1934,-1.1923,-1.2045,-1.2011,-1.2015,-1.202,-1.2063,-1.2073,-1.2082,-1.1962,-1.1961,-1.1961,0,0,-1.1452,-1.1483,-1.1539,-1.1572,-1.1621,-1.1641,-1.1655,-1.1705,-1.1722,-1.1791,-1.1794,-1.184,-1.1928,-1.1963,-1.1992,-1.2072,-1.2073,-1.2088,-1.2122,-1.2164,-1.2173,-1.2181,-1.221,-1.222,-1.2095,-1.2095,-1.2095,0,-1.1474,-1.155,-1.1567,-1.1622,-1.1653,-1.1657,-1.1714,-1.1745,-1.1808,-1.183,-1.1817,-1.1927,-1.196,-1.2043,-1.2063,-1.2086,-1.2103,-1.2082,-1.217,-1.2178,-1.2185,-1.2214,-1.2225,-1.2097,-1.2096,-1.2096,-1.2096,0,-1.1576,-1.1628,-1.1667,-1.1727,-1.1762,-1.1818,-1.1844,-1.1878,-1.1886,-1.1909,-1.1979,-1.2019,-1.2077,-1.2098,-1.2106,-1.2183,-1.2174,-1.2165,-1.2141,-1.2197,-1.2224,-1.2235,-1.2099,-1.2098,-1.2098,-1.2097,0,0,-1.1654,-1.1721,-1.1736,-1.1763,-1.1817,-1.1858,-1.1913,-1.1969,-1.1998,-1.2041,-1.2089,-1.2163,-1.2155,-1.2188,-1.22,-1.2237,-1.2299,-1.2224,-1.2225,-1.2237,-1.2386,-1.2393,-1.2405,-1.2299,-1.2301,-1.2303,-1.2382,0,-1.1728,-1.1826,-1.1843,-1.1929,-1.1978,-1.1981,-1.203,-1.2069,-1.2091,-1.2136,-1.2161,-1.2213,-1.2198,-1.2218,-1.2255,-1.2284,-1.2329,-1.2278,-1.2345,-1.2347,-1.2333,-1.2419,-1.2427,-1.25,-1.2393,-1.2395,-1.2396,0,-1.1828,-1.1872,-1.1963,-1.201,-1.2031,-1.2074,-1.2126,-1.2169,-1.2214,-1.2227,-1.2264,-1.2272,-1.2331,-1.2303,-1.2385,-1.2349,-1.2378,-1.2396,-1.2399,-1.2407,-1.2376,-1.243,-1.2524,-1.2535,-1.2413,-1.2411,-1.241,0,-1.1876,-1.1959,-1.2024,-1.2047,-1.2103,-1.2134,-1.2159,-1.2201,-1.2233,-1.2279,-1.23,-1.2352,-1.2381,-1.2422,-1.2444,-1.2422,-1.2525,-1.2499,-1.2539,-1.2538,-1.2561,-1.2559,-1.2661,-1.2578,-1.2577,-1.2577,-1.2577,0,-1.1958,-1.2014,-1.2046,-1.2086,-1.2149,-1.2168,-1.2229,-1.2254,-1.2291,-1.2337,-1.2344,-1.2386,-1.2413,-1.2459,-1.2477,-1.2542,-1.2555,-1.2569,-1.2573,-1.2569,-1.2567,-1.2588,-1.2584,-1.258,-1.2579,-1.2579,-1.2578,0,-1.2024,-1.2048,-1.2119,-1.2166,-1.2179,-1.2223,-1.2263,-1.2303,-1.2324,-1.2382,-1.2397,-1.2431,-1.2486,-1.2512,-1.2581,-1.2593,-1.2667,-1.2668,-1.2652,-1.2654,-1.2693,-1.2689,-1.2812,-1.283,-1.2734,-1.2735,-1.2735,0,-1.2075,-1.2117,-1.2168,-1.2199,-1.2224,-1.2273,-1.2306,-1.2326,-1.236,-1.2413,-1.2446,-1.2501,-1.2547,-1.2635,-1.2667,-1.272,-1.2722,-1.2762,-1.273,-1.2725,-1.2724,-1.2721,-1.2726,-1.2768,-1.2769,-1.2769,-1.277,0,-1.2163,-1.2173,-1.2219,-1.2269,-1.2307,-1.2348,-1.2388,-1.2412,-1.2439,-1.2477,-1.2533,-1.2568,-1.2637,-1.2693,-1.2747,-1.2774,-1.2777,-1.2779,-1.2791,-1.2788,-1.2778,-1.2785,-1.2669,-1.2777,-1.2776,-1.2776,-1.2775,-1.2775,-1.2224,-1.2262,-1.2304,-1.2354,-1.2386,-1.2423,-1.2462,-1.2488,-1.2535,-1.2593,-1.2602,-1.2662,-1.2705,-1.2778,-1.2807,-1.2855,-1.2846,-1.2863,-1.2868,-1.2872,-1.2875,-1.2769,-1.2865,-1.2865,-1.2864,-1.2864,-1.2864,0,-1.2314,-1.234,-1.2387,-1.2442,-1.2482,-1.2479,-1.2523,-1.2557,-1.2609,-1.2649,-1.2693,-1.2757,-1.281,-1.2846,-1.29,-1.2932,-1.2934,-1.2945,-1.2944,-1.295,-1.2879,-1.2864,-1.2942,-1.2942,-1.2942,-1.2942,-1.2942,-1.2942,-1.2365,-1.2429,-1.2443,-1.2523,-1.255,-1.2607,-1.2633,-1.2667,-1.2699,-1.277,-1.2814,-1.2836,-1.2874,-1.2931,-1.298,-1.2989,-1.3009,-1.3021,-1.303,-1.2963,-1.2955,-1.2947,-1.2933,-1.3025,-1.3025,-1.3097,-1.3098,-1.3098]},{"header":{"parameterUnit":"m.s-1","parameterCategory":1,"la1":30.2991,"la2":30.254,"lo1":-89.0895,"lo2":-89.0444,"dx":0.0017,"dy":0.0017,"nx":28,"ny":28,"refTime":"2022-12-16T09:00:00:Z","depth":0,"parameterNumber":3,"parameterNumberName":"V-component_of_WINDS"},"data":[0,0,0,0,0,0,0,0,0,0,0,0,0,0,0,0,0,0,0,0,0,0,0,0,0,0,0,0,0,0,0,0,0,0,0,0,0,0,0,0,0,0,0,0,0,0,0,0,0,0,0,0,0,0,0,0,0,0,2.8451,2.8452,0,2.8524,2.8524,2.8525,2.85,2.8498,2.8497,2.8495,2.8566,2.8569,2.8572,0,0,0,0,0,0,0,0,0,0,0,0,0,2.8286,2.8289,2.8451,2.8452,2.8453,2.8523,2.8524,2.8525,2.85,2.8498,2.8496,2.8495,2.8564,2.8568,2.8572,0,0,0,0,0,0,0,0,0,0,0,0,0,2.8358,2.829,2.8451,2.8449,2.845,2.8523,2.8524,2.8526,2.8501,2.8498,2.8496,2.8494,2.8563,2.8568,2.8573,2.8652,0,0,2.8588,2.8591,0,0,0,0,0,0,0,0,2.8354,2.8364,2.8448,2.8449,2.845,2.85,2.8492,2.8568,2.8501,2.8481,2.8495,2.8493,2.8546,2.8552,2.8571,2.8655,2.8658,2.8589,2.8592,2.8594,2.8595,0,0,0,0,0,0,0,2.8349,2.8361,2.848,2.845,2.8451,2.8443,2.845,2.8506,2.8526,2.8483,2.8481,2.849,2.8545,2.8566,2.8572,2.8659,2.8589,2.8593,2.8596,2.8598,2.8809,2.8811,0,0,0,0,0,0,2.8344,2.8357,2.8477,2.8482,2.8395,2.8448,2.8456,2.8487,2.8525,2.8529,2.8492,2.8489,2.8558,2.8566,2.8574,2.8667,2.8594,2.8599,2.8602,2.8806,2.8809,2.8812,0,0,0,0,0,0,2.834,2.8355,2.8474,2.8419,2.8433,2.8453,2.8487,2.8489,2.851,2.8532,2.8535,2.851,2.8557,2.8567,2.8632,2.8669,2.8601,2.8606,2.8803,2.8807,2.8811,2.8854,0,0,0,0,0,0,2.8336,2.8354,2.8385,2.842,2.8437,2.8533,2.849,2.8492,2.8519,2.8515,2.8549,2.8553,2.8556,2.8625,2.8637,2.8675,2.8609,2.88,2.8805,2.881,2.885,2.8859,2.8867,0,0,0,0,0,2.833,2.8394,2.8387,2.8402,2.8477,2.8535,2.8544,2.8548,2.8522,2.8553,2.8567,2.8552,2.8664,2.8632,2.8646,2.8685,2.8798,2.8804,2.8809,2.8846,2.8857,2.8867,0,0,0,0,0,0,2.8363,2.8399,2.8391,2.8469,2.8499,2.8531,2.857,2.856,2.8598,2.8592,2.8594,2.8601,2.8668,2.8683,2.8647,2.8762,2.8726,2.8735,2.8749,2.8761,2.8769,2.8763,2.8614,0,0,0,0,0,2.838,2.8426,2.8454,2.852,2.8535,2.855,2.8576,2.8576,2.8606,2.8619,2.8638,2.8667,2.8708,2.8736,2.8775,2.8852,2.8858,2.8886,2.8895,2.8902,2.8909,2.8948,2.896,2.8831,2.8831,2.8831,0,0,2.8414,2.8439,2.8468,2.8527,2.855,2.8596,2.8561,2.8611,2.8644,2.8626,2.8688,2.8703,2.8736,2.8806,2.8838,2.8821,2.8946,2.8909,2.8915,2.8918,2.8955,2.8967,2.8978,2.8835,2.8834,2.8834,0,0,2.8499,2.8524,2.858,2.8604,2.864,2.865,2.8663,2.8696,2.8705,2.8768,2.8754,2.8793,2.8865,2.8888,2.891,2.9002,2.8988,2.9015,2.906,2.9098,2.9108,2.9117,2.9148,2.9159,2.9022,2.9022,2.9022,0,2.8536,2.8606,2.861,2.8661,2.8686,2.8673,2.8728,2.8751,2.8798,2.8815,2.8795,2.8884,2.8905,2.898,2.9002,2.9021,2.9034,2.901,2.9107,2.9116,2.9124,2.9153,2.9165,2.9025,2.9025,2.9024,2.9024,0,2.8649,2.8697,2.8738,2.8784,2.8814,2.8868,2.8878,2.8907,2.8904,2.8915,2.8977,2.9002,2.9045,2.9064,2.9061,2.9137,2.9125,2.9107,2.907,2.9139,2.9166,2.9178,2.9029,2.9028,2.9027,2.9026,0,0,2.8757,2.8804,2.8818,2.8838,2.8876,2.8913,2.8965,2.9008,2.9032,2.9064,2.9106,2.9167,2.9149,2.9173,2.9173,2.9207,2.9275,2.9184,2.9184,2.9198,2.9357,2.937,2.9383,2.9267,2.9269,2.9271,2.9354,0,2.8843,2.8935,2.8939,2.9022,2.9065,2.9052,2.9097,2.9124,2.9135,2.9171,2.9183,2.9225,2.92,2.9214,2.9247,2.926,2.9307,2.9254,2.9303,2.9305,2.9294,2.9397,2.9411,2.9488,2.9365,2.9367,2.9368,0,2.8956,2.8993,2.908,2.911,2.9128,2.9168,2.9207,2.9244,2.9273,2.9278,2.9305,2.9299,2.9349,2.9313,2.9381,2.9345,2.9365,2.9375,2.9377,2.9381,2.9339,2.9401,2.9513,2.9523,2.9385,2.9384,2.9383,0,2.9023,2.9094,2.9154,2.9172,2.921,2.9237,2.9254,2.9282,2.9307,2.934,2.9356,2.9395,2.9415,2.9444,2.9449,2.9422,2.9516,2.948,2.952,2.9519,2.9538,2.9537,2.9653,2.9555,2.9555,2.9555,2.9555,0,2.9118,2.9171,2.9185,2.9222,2.928,2.9284,2.9341,2.9355,2.9379,2.9417,2.9409,2.9444,2.9449,2.9485,2.9489,2.9543,2.9553,2.9557,2.9556,2.9556,2.9555,2.9568,2.9562,2.9558,2.9557,2.9557,2.9556,0,2.9202,2.9214,2.9278,2.9308,2.9317,2.9358,2.9383,2.9417,2.9427,2.9475,2.9487,2.9502,2.9544,2.9551,2.9601,2.9603,2.9667,2.9662,2.9657,2.9656,2.9693,2.9689,2.982,2.9836,2.973,2.9731,2.9732,0,2.9261,2.9302,2.9336,2.9361,2.9379,2.942,2.9446,2.945,2.9477,2.9513,2.9542,2.9583,2.9616,2.9683,2.9697,2.9734,2.9729,2.9773,2.9735,2.9732,2.9727,2.9724,2.9727,2.9779,2.9781,2.9781,2.9782,0,2.9363,2.9367,2.9405,2.9444,2.9475,2.9506,2.9535,2.9556,2.9564,2.9594,2.9637,2.9662,2.9713,2.9752,2.9789,2.9804,2.9794,2.9794,2.9805,2.9804,2.9798,2.9799,2.9674,2.9791,2.979,2.9789,2.9789,2.9789,2.9435,2.947,2.9499,2.954,2.9563,2.959,2.9623,2.9637,2.9674,2.9715,2.9716,2.9762,2.9788,2.9836,2.9854,2.9889,2.9875,2.9891,2.9894,2.9898,2.99,2.9794,2.9896,2.9896,2.9895,2.9895,2.9895,0,2.9535,2.9553,2.9591,2.9632,2.9665,2.9654,2.9685,2.9712,2.9753,2.9779,2.9812,2.986,2.9899,2.9916,2.9953,2.9977,2.9973,2.9987,2.9984,2.9987,2.9912,2.9898,2.9989,2.9989,2.9989,2.9989,2.9989,2.9989,2.9591,2.9648,2.9654,2.9721,2.9739,2.9785,2.9803,2.9827,2.9848,2.9902,2.9935,2.9946,2.9967,3.0006,3.004,3.0044,3.0057,3.0072,3.0073,3.0002,2.9993,2.9983,2.997,3.0075,3.0075,3.0145,3.0146,3.0146]}]]